Flag for Brazil

Past Weather in Guarulhos, São Paulo, Brazil — Yesterday and Last 2 Weeks

Now
77 °F

Clear.


Feels Like: 78 °F
Forecast: 79 / 62 °F
Wind: 8 mph from Northwest

Location: Guarulhos Civ / Mil

Current Time: Jul 8, 2020 at 6:33:40 pm

Latest Report: Jul 8, 2020 at 6:00 pm


Visibility: 10 mi

Pressure: 29.98 "Hg (27.48 "Hg at 759m altitude)

Humidity: 42%

Dew Point: 52 °F

Location of GuarulhosLocation

Past Weather in Guarulhos — Graph

°F

Guarulhos Temperature Yesterday

Maximum temperature yesterday: 82 °F (at 2:00 pm)
Minimum temperature yesterday: 59 °F (at 2:00 am)
Average temperature yesterday: 67 °F

High & Low Weather Summary for the Past Weeks

 TemperatureHumidityPressure
High82 °F (Jul 7, 2:00 pm)100% (Jun 25, 5:00 am)30.27 "Hg (Jun 25, 5:00 am)
Low46 °F (Jul 2, 2:00 am)34% (Jul 8, 2:00 pm)29.83 "Hg (Jun 30, 5:00 pm)
Average62 °F76%30.08 "Hg
* Reported Jun 23 5:00 pm — Jul 8 5:00 pm, Guarulhos. Weather by CustomWeather, © 2020

Note: Actual official high and low records may vary slightly from our data, if they occured in-between our weather recording intervals... More about our weather records

Guarulhos Weather History for the Previous 24 Hours

Scroll right to see more
 ConditionsComfort  
Time TempWeatherWind HumidityBarometerVisibility
5:00 pm
Wed, Jul 8
77 °FSunny.9 mph42%29.98 "Hg10 mi
4:00 pm79 °FSunny.14 mph37%29.95 "Hg10 mi
3:00 pm79 °FSunny.18 mph37%29.95 "Hg10 mi
2:00 pm81 °FSunny.22 mph34%29.95 "Hg10 mi
1:00 pm79 °FSunny.20 mph37%29.98 "Hg10 mi
12:00 pm77 °FSunny.12 mph39%30.01 "Hg10 mi
11:30 am77 °FSunny.17 mph39%30.01 "Hg10 mi
11:00 am75 °FSunny.14 mph41%30.04 "Hg10 mi
10:00 am73 °FSunny.13 mph41%30.04 "Hg10 mi
9:00 am72 °FSunny.9 mph44%30.04 "Hg10 mi
8:00 am68 °FSunny.9 mph49%30.01 "Hg10 mi
7:00 am66 °FSunny.9 mph52%29.98 "Hg10 mi
6:00 am64 °FClear.8 mph56%29.98 "Hg10 mi
5:00 am66 °FClear.8 mph49%29.98 "Hg10 mi
4:00 am64 °FClear.7 mph52%29.98 "Hg10 mi
3:00 am63 °FClear.8 mph59%30.01 "Hg10 mi
2:00 am61 °FClear.7 mph68%30.04 "Hg10 mi
1:00 am63 °FClear.7 mph68%30.04 "Hg10 mi
12:00 am61 °FClear.2 mph77%30.04 "Hg10 mi
11:00 pm
Tue, Jul 7
59 °FClear.No wind82%30.04 "Hg10 mi
10:00 pm63 °FClear.2 mph73%30.04 "Hg10 mi
9:00 pm63 °FClear.No wind77%30.01 "Hg10 mi
8:00 pm64 °FClear.2 mph73%30.01 "Hg10 mi
7:00 pm66 °FClear.2 mph68%30.01 "Hg10 mi
6:00 pm75 °FClear.8 mph47%30.01 "Hg10 mi
Weather by CustomWeather, © 2020

See weather overview